Regional Weather Roundup
Issued by NWS

Home | Current Version | Previous Version | Text Only | Print | Product List | Glossary On
Versions: 1 2 3 4 5 6 7 8 9 10 11 12 13 14 15 16 17 18 19 20 21 22 23 24 25 26 27 28 29 30 31 32 33 34 35 36 37 38 39 40 41 42 43 44 45 46 47 48 49 50
000
ASUS45 KBOU 232010
RWRCO

WEATHER ROUNDUP FOR COLORADO
NATIONAL WEATHER SERVICE DENVER/BOULDER CO
100 PM MST FRI FEB 23 2018

NOTE: "FAIR" INDICATES FEW OR NO CLOUDS BELOW 12000 FEET WITH NO
SIGNIFICANT WEATHER AND/OR OBSTRUCTIONS TO VISIBILITY.

COZ001>005-013-030-031-232100-
...NORTHWEST COLORADO...

CITY           SKY/WX    TMP DP  RH WIND       PRES   REMARKS
CRAIG          PTSUNNY   32  12  43 NW5       29.87F WCI  27
HAYDEN         PTSUNNY   32  14  47 E8        29.86F WCI  25
MEEKER         FAIR      31  16  54 S23G29    29.85F WCI  18
RANGELY        MOCLDY    34  17  48 S14       29.86F WCI  25
RABBIT EARS PA FAIR      19  10  68 S6        29.79F WCI  11
STEAMBOAT SPGS PTSUNNY   32   7  34 SE14G23   29.84F WCI  22
WALDEN         CLOUDY    27   5  39 SW16      29.84F WCI  14
$$

COZ006>008-011-232100-
...WEST CENTRAL VALLEYS...

CITY           SKY/WX    TMP DP  RH WIND       PRES   REMARKS
GRAND JUNCTION CLOUDY    36  21  54 W13       29.91F
MONTROSE       CLOUDY    37  12  35 VRB7      29.90F
EAGLE          PTSUNNY   35  12  38 VRB7      29.89F WCI  29
RIFLE          CLOUDY    30  23  75 W10       29.91F WCI  21
DELTA          PTSUNNY   38  20  47 SW7       29.92F
NUCLA          SNOW      28  27  93 W7        29.97F VSB 1/4 WCI  21
$$

COZ017>023-064>068-232100-
...SOUTHWEST COLORADO...

CITY           SKY/WX    TMP DP  RH WIND       PRES   REMARKS
DURANGO        PTSUNNY   35  16  45 S12G23    29.94F WCI  27
CORTEZ         CLOUDY    36  15  42 S17G29    29.93F
PAGOSA SPRINGS PTSUNNY   33  10  38 SW10G17   29.95F WCI  24
TELLURIDE      CLOUDY    23   7  50 CALM      29.87F
WOLF CREEK PAS CLOUDY     9   7  92 S23G43    29.87F WCI -12
$$

COZ009-010-012-014-032>034-037-058>063-232100-
...CENTRAL COLORADO...

CITY           SKY/WX    TMP DP  RH WIND       PRES   REMARKS
ASPEN          CLOUDY    30   5  34 S7G20     29.83F WCI  23
BUENA VISTA    FAIR      34   5  29 SE21G31   29.85F WCI  22
COPPER MTN     CLOUDY    14  -2  48 S13G21    29.79F WCI   0
BERTHOUD PASS  PTSUNNY    9  -4  56 SW18G36   29.77F HAZE    WCI -10
COTTONWOOD PAS CLOUDY    30   5  34 W5        29.84F WCI  25
GUNNISON       FAIR      31   6  35 VRB5      29.86F WCI  26
GRANBY         CLOUDY    26   5  41 N6        29.85F WCI  19
KREMMLING      FAIR      36  18  48 CALM      29.87F
LEADVILLE      FAIR      17   3  54 S13       29.81F WCI   4
MONARCH PASS   FOG       12   9  85 SW33G41   29.90F VSB 1/2 WCI -10
SALIDA         FAIR      37   7  29 S13G21    29.95F
SUNLIGHT       CLOUDY    16  10  79 S12G24    29.83F WCI   3
WILKERSON PASS FAIR      21   5  49 SW9G20    29.85F WCI  11
$$

COZ069>075-232100-
...SAN LUIS VALLEY/SANGRE DE CRISTO MOUNTAINS...

CITY           SKY/WX    TMP DP  RH WIND       PRES   REMARKS
ALAMOSA        FAIR      39   5  24 SW23G29   29.89F
DEL NORTE      FAIR      33   8  35 W13G18    29.89F WCI  23
LA VETA PASS   FAIR      30   5  34 S24G41    29.99F WCI  16
SAGUACHE       FAIR      34   9  35 SW10G23   29.90F WCI  26
$$

COZ035-036-038>040-232100-
...NORTHERN COLORADO FRONT RANGE...

CITY           SKY/WX    TMP DP  RH WIND       PRES   REMARKS
DENVER INTL AP PTSUNNY   31  24  75 NE10      29.95F HAZE    WCI  22
AURORA         MOSUNNY   34  26  71 NE8       29.93F WCI  27
FRONT RANGE AP PTSUNNY   36  28  75 E9G17     29.95F
ERIE MUNI ARPT FAIR      28  20  70 E5        30.03F HAZE    WCI  23
BOULDER MUN AP PTSUNNY   30  19  64 NE6       29.97F WCI  24
CENTENNIAL     FAIR      32  23  69 N9        29.92F WCI  24
BROOMFIELD     MOSUNNY   30  21  69 N8        29.96F WCI  23
FORT COLLINS   FAIR      27  19  72 E9        30.00F HAZE    WCI  18
LONGMONT       FAIR      36  20  51 E3        30.00F
$$

COZ041-046-047-076>085-087-088-232100-
...PIKES PEAK/PALMER DIVIDE AND SOUTHERN FOOTHILLS...

CITY           SKY/WX    TMP DP  RH WIND       PRES   REMARKS
COLO. SPRINGS  FAIR      38  16  40 SE18      29.92F
A. F. ACADEMY  FAIR      38  13  36 S16G22    29.90F
SCHRIEVER AFB  NOT AVBL
CHEYENNE MTN   FAIR      32  16  50 SE16      29.85F WCI  22
ELLICOTT         N/A    N/A N/A N/A SE16      29.93F
FALCON         FAIR      37   7  28 SE14G23   29.92F
FORT CARSON    FAIR      38  17  41 SE14      29.92F
LIMON          FAIR      38  18  44 SE16G26   29.97F
MONUMENT HILL  FAIR      36  12  38 S15       29.90F
CANON CITY     SUNNY     41  19  42 E13G20    29.93F
WALSENBURG     NOT AVBL
TRINIDAD       FAIR      46  14  27 E10       29.89F
$$

COZ042>045-048>051-090-091-232100-
...NORTHEAST COLORADO...

CITY           SKY/WX    TMP DP  RH WIND       PRES   REMARKS
GREELEY ARPT   NOT AVBL
AKRON          FAIR      35  20  54 SE14G21   30.01F WCI  26
BURLINGTON     CLOUDY    28  23  81 SE8       30.06F WCI  20
WRAY           FAIR      37  18  44 E10       30.09F
YUMA           FAIR      34  18  51 E12G17    30.05F WCI  25
STERLING       FAIR      37  18  44 E10G16    30.04F
HOLYOKE        FAIR      37  18  44 E12       30.10F
FORT MORGAN    FAIR      38  19  44 E8        30.02F
$$

COZ086-089-092>099-232100-
...SOUTHEAST COLORADO...

CITY           SKY/WX    TMP DP  RH WIND       PRES   REMARKS
PUEBLO         FAIR      36  18  48 SE10      29.98F
LA JUNTA       CLOUDY    28  23  81 E10       30.02F WCI  19
LAMAR          CLOUDY    30  23  75 E8        30.05F WCI  22
SPRINGFIELD      N/A     38  24  57 E16       30.00F
$$



USA.gov is the U.S. government's official web portal to all federal, state and local government web resources and services.